Time,TemperatureF,DewpointF,PressureIn,WindDirection,WindDirectionDegrees,WindSpeedMPH,WindSpeedGustMPH,Humidity,HourlyPrecipIn,Conditions,Clouds,dailyrainin,SoftwareType,DateUTC
2013-11-18 00:01:00,37.6,9.0,30.37,SE,129,0.0,2.2,30,0.00,,SKC,0.00,VWS V14.01,2013-11-18 08:01:00,
2013-11-18 00:06:00,37.0,9.2,30.37,WSW,237,0.0,0.0,31,0.00,,SKC,0.00,VWS V14.01,2013-11-18 08:06:00,
2013-11-18 00:11:00,36.1,8.4,30.37,WSW,237,0.0,0.0,31,0.00,,SKC,0.00,VWS V14.01,2013-11-18 08:11:00,
2013-11-18 00:16:00,35.1,8.2,30.37,WSW,237,0.0,0.0,32,0.00,,SKC,0.00,VWS V14.01,2013-11-18 08:16:00,
2013-11-18 00:21:00,34.3,7.6,30.37,WSW,237,0.0,0.0,32,0.00,,SKC,0.00,VWS V14.01,2013-11-18 08:21:00,
2013-11-18 00:26:00,33.4,7.4,30.37,WSW,237,0.0,0.0,33,0.00,,SKC,0.00,VWS V14.01,2013-11-18 08:26:00,
2013-11-18 00:31:00,32.9,8.9,30.37,WSW,237,0.0,0.0,36,0.00,,SKC,0.00,VWS V14.01,2013-11-18 08:31:00,
2013-11-18 00:36:00,32.5,9.8,30.37,SW,236,0.0,0.0,38,0.00,,SKC,0.00,VWS V14.01,2013-11-18 08:36:00,
2013-11-18 00:41:00,32.4,10.8,30.37,SE,127,2.7,2.7,40,0.00,,SKC,0.00,VWS V14.01,2013-11-18 08:41:00,
2013-11-18 00:46:00,32.5,10.9,30.37,SE,128,4.0,5.4,40,0.00,,SKC,0.00,VWS V14.01,2013-11-18 08:46:00,
2013-11-18 00:51:00,33.6,11.9,30.37,SE,133,2.7,3.6,40,0.00,,SKC,0.00,VWS V14.01,2013-11-18 08:51:00,
2013-11-18 00:56:00,34.5,11.5,30.35,ESE,116,2.7,4.0,38,0.00,,SKC,0.00,VWS V14.01,2013-11-18 08:56:00,
2013-11-18 01:01:00,35.2,11.0,30.35,SE,138,3.6,4.9,36,0.00,,SKC,0.00,VWS V14.01,2013-11-18 09:01:00,
2013-11-18 01:06:00,35.6,10.0,30.35,ESE,120,3.1,3.6,34,0.00,,SKC,0.00,VWS V14.01,2013-11-18 09:06:00,
2013-11-18 01:11:00,35.8,10.2,30.35,ESE,114,2.7,3.6,34,0.00,,SKC,0.00,VWS V14.01,2013-11-18 09:11:00,
2013-11-18 01:16:00,36.0,10.3,30.35,ESE,105,3.1,3.1,34,0.00,,SKC,0.00,VWS V14.01,2013-11-18 09:16:00,
2013-11-18 01:21:00,36.0,9.7,30.35,East,98,0.0,0.0,33,0.00,,SKC,0.00,VWS V14.01,2013-11-18 09:21:00,
2013-11-18 01:26:00,35.8,9.5,30.35,ESE,106,2.7,2.7,33,0.00,,SKC,0.00,VWS V14.01,2013-11-18 09:26:00,
2013-11-18 01:31:00,35.8,9.5,30.35,ESE,106,0.0,0.0,33,0.00,,SKC,0.00,VWS V14.01,2013-11-18 09:31:00,
2013-11-18 01:36:00,35.6,9.4,30.35,ESE,106,0.0,0.0,33,0.00,,SKC,0.00,VWS V14.01,2013-11-18 09:36:00,
2013-11-18 01:41:00,35.1,9.5,30.35,SE,125,0.0,0.0,34,0.00,,SKC,0.00,VWS V14.01,2013-11-18 09:41:00,
2013-11-18 01:46:00,35.1,10.2,30.35,SE,124,3.6,4.0,35,0.00,,SKC,0.00,VWS V14.01,2013-11-18 09:46:00,
2013-11-18 01:51:00,35.6,10.0,30.35,SE,125,3.1,4.9,34,0.00,,SKC,0.00,VWS V14.01,2013-11-18 09:51:00,
2013-11-18 01:56:00,35.8,9.5,30.35,NE,38,3.6,3.6,33,0.00,,SKC,0.00,VWS V14.01,2013-11-18 09:56:00,
2013-11-18 02:01:00,36.0,9.7,30.35,East,95,4.0,4.0,33,0.00,,SKC,0.00,VWS V14.01,2013-11-18 10:01:00,
2013-11-18 02:06:00,36.1,9.8,30.35,ESE,117,4.9,4.9,33,0.00,,SKC,0.00,VWS V14.01,2013-11-18 10:06:00,
2013-11-18 02:11:00,36.1,9.8,30.35,ESE,120,3.1,3.6,33,0.00,,SKC,0.00,VWS V14.01,2013-11-18 10:11:00,
2013-11-18 02:16:00,36.0,9.7,30.35,SE,129,3.1,3.6,33,0.00,,SKC,0.00,VWS V14.01,2013-11-18 10:16:00,
2013-11-18 02:21:00,35.8,9.5,30.35,SE,124,0.0,0.0,33,0.00,,SKC,0.00,VWS V14.01,2013-11-18 10:21:00,
2013-11-18 02:26:00,35.2,9.0,30.35,SE,129,4.9,4.9,33,0.00,,SKC,0.00,VWS V14.01,2013-11-18 10:26:00,
2013-11-18 02:31:00,34.7,9.2,30.35,SE,132,2.7,3.1,34,0.00,,SKC,0.00,VWS V14.01,2013-11-18 10:31:00,
2013-11-18 02:36:00,34.9,10.0,30.35,SE,126,4.9,4.9,35,0.00,,SKC,0.00,VWS V14.01,2013-11-18 10:36:00,
2013-11-18 02:41:00,35.2,9.7,30.32,East,87,3.6,3.6,34,0.00,,SKC,0.00,VWS V14.01,2013-11-18 10:41:00,
2013-11-18 02:46:00,35.2,9.7,30.32,ENE,77,0.0,0.0,34,0.00,,SKC,0.00,VWS V14.01,2013-11-18 10:46:00,
2013-11-18 02:51:00,35.1,9.5,30.32,East,100,4.9,4.9,34,0.00,,SKC,0.00,VWS V14.01,2013-11-18 10:51:00,
2013-11-18 02:56:00,35.1,9.5,30.32,ESE,123,3.6,3.6,34,0.00,,SKC,0.00,VWS V14.01,2013-11-18 10:56:00,
2013-11-18 03:01:00,35.1,9.5,30.32,SE,132,5.4,5.4,34,0.00,,SKC,0.00,VWS V14.01,2013-11-18 11:01:00,
2013-11-18 03:06:00,35.1,9.5,30.32,SE,125,4.9,4.9,34,0.00,,SKC,0.00,VWS V14.01,2013-11-18 11:06:00,
2013-11-18 03:11:00,34.9,9.4,30.32,SE,133,0.0,0.0,34,0.00,,SKC,0.00,VWS V14.01,2013-11-18 11:11:00,
2013-11-18 03:16:00,34.9,9.4,30.32,SE,130,0.0,0.0,34,0.00,,SKC,0.00,VWS V14.01,2013-11-18 11:16:00,
2013-11-18 03:21:00,34.3,9.5,30.32,SE,130,0.0,0.0,35,0.00,,SKC,0.00,VWS V14.01,2013-11-18 11:21:00,
2013-11-18 03:26:00,34.2,10.0,30.32,ESE,115,3.6,3.6,36,0.00,,SKC,0.00,VWS V14.01,2013-11-18 11:26:00,
2013-11-18 03:31:00,34.3,9.5,30.32,ESE,120,0.0,0.0,35,0.00,,SKC,0.00,VWS V14.01,2013-11-18 11:31:00,
2013-11-18 03:36:00,33.6,9.5,30.32,ESE,120,0.0,0.0,36,0.00,,SKC,0.00,VWS V14.01,2013-11-18 11:36:00,
2013-11-18 03:41:00,32.7,9.3,30.32,ESE,120,0.0,0.0,37,0.00,,SKC,0.00,VWS V14.01,2013-11-18 11:41:00,
2013-11-18 03:46:00,31.6,9.5,30.32,ESE,120,0.0,0.0,39,0.00,,SKC,0.00,VWS V14.01,2013-11-18 11:46:00,
2013-11-18 03:51:00,30.9,9.4,30.32,ESE,120,0.0,0.0,40,0.00,,SKC,0.00,VWS V14.01,2013-11-18 11:51:00,
2013-11-18 03:56:00,30.2,9.4,30.32,ESE,120,0.0,0.0,41,0.00,,SKC,0.00,VWS V14.01,2013-11-18 11:56:00,
2013-11-18 04:01:00,29.5,9.2,30.32,ESE,120,0.0,0.0,42,0.00,,SKC,0.00,VWS V14.01,2013-11-18 12:01:00,
2013-11-18 04:06:00,29.1,9.4,30.32,ESE,120,0.0,0.0,43,0.00,,SKC,0.00,VWS V14.01,2013-11-18 12:06:00,
2013-11-18 04:11:00,28.6,9.4,30.32,ESE,120,0.0,0.0,44,0.00,,SKC,0.00,VWS V14.01,2013-11-18 12:11:00,
2013-11-18 04:16:00,28.6,9.9,30.32,ESE,120,0.0,0.0,45,0.00,,SKC,0.00,VWS V14.01,2013-11-18 12:16:00,
2013-11-18 04:21:00,28.6,10.4,30.32,ESE,120,0.0,0.0,46,0.00,,SKC,0.00,VWS V14.01,2013-11-18 12:21:00,
2013-11-18 04:26:00,28.0,9.9,30.32,ESE,120,0.0,0.0,46,0.00,,SKC,0.00,VWS V14.01,2013-11-18 12:26:00,
2013-11-18 04:31:00,28.2,10.6,30.32,ESE,120,0.0,0.0,47,0.00,,SKC,0.00,VWS V14.01,2013-11-18 12:31:00,
2013-11-18 04:36:00,28.9,11.7,30.32,ESE,120,0.0,0.0,48,0.00,,SKC,0.00,VWS V14.01,2013-11-18 12:36:00,
2013-11-18 04:41:00,28.9,11.2,30.32,ESE,120,0.0,0.0,47,0.00,,SKC,0.00,VWS V14.01,2013-11-18 12:41:00,
2013-11-18 04:46:00,28.4,10.3,30.32,ESE,120,0.0,0.0,46,0.00,,SKC,0.00,VWS V14.01,2013-11-18 12:46:00,
2013-11-18 04:51:00,27.7,9.6,30.32,ESE,120,0.0,0.0,46,0.00,,SKC,0.00,VWS V14.01,2013-11-18 12:51:00,
2013-11-18 04:56:00,27.0,8.9,30.32,ESE,120,0.0,0.0,46,0.00,,SKC,0.00,VWS V14.01,2013-11-18 12:56:00,
2013-11-18 05:01:00,26.6,9.6,30.32,ESE,120,0.0,0.0,48,0.00,,SKC,0.00,VWS V14.01,2013-11-18 13:01:00,
2013-11-18 05:06:00,26.6,10.9,30.32,ESE,120,0.0,0.0,51,0.00,,SKC,0.00,VWS V14.01,2013-11-18 13:06:00,
2013-11-18 05:11:00,26.4,10.8,30.32,ESE,120,0.0,0.0,51,0.00,,SKC,0.00,VWS V14.01,2013-11-18 13:11:00,
2013-11-18 05:16:00,26.4,11.2,30.32,ESE,120,0.0,0.0,52,0.00,,SKC,0.00,VWS V14.01,2013-11-18 13:16:00,
2013-11-18 05:21:00,26.4,11.2,30.32,ESE,120,0.0,0.0,52,0.00,,SKC,0.00,VWS V14.01,2013-11-18 13:21:00,
2013-11-18 05:26:00,26.1,10.9,30.29,ESE,120,0.0,0.0,52,0.00,,SKC,0.00,VWS V14.01,2013-11-18 13:26:00,
2013-11-18 05:31:00,26.1,10.9,30.29,ESE,120,0.0,0.0,52,0.00,,SKC,0.00,VWS V14.01,2013-11-18 13:31:00,
2013-11-18 05:36:00,25.7,10.9,30.29,ESE,120,0.0,0.0,53,0.00,,SKC,0.00,VWS V14.01,2013-11-18 13:36:00,
2013-11-18 05:41:00,26.1,11.7,30.29,ESE,120,0.0,0.0,54,0.00,,SKC,0.00,VWS V14.01,2013-11-18 13:41:00,
2013-11-18 05:46:00,26.2,11.9,30.29,ESE,120,0.0,0.0,54,0.00,,SKC,0.00,VWS V14.01,2013-11-18 13:46:00,
2013-11-18 05:51:00,27.0,12.1,30.29,ESE,120,0.0,0.0,53,0.00,,SKC,0.00,VWS V14.01,2013-11-18 13:51:00,
2013-11-18 05:56:00,27.5,12.2,30.29,ESE,120,0.0,0.0,52,0.00,,SKC,0.00,VWS V14.01,2013-11-18 13:56:00,
2013-11-18 06:01:00,27.3,11.6,30.29,ESE,120,0.0,0.0,51,0.00,,SKC,0.00,VWS V14.01,2013-11-18 14:01:00,
2013-11-18 06:06:00,27.0,10.8,30.29,ESE,120,0.0,0.0,50,0.00,,SKC,0.00,VWS V14.01,2013-11-18 14:06:00,
2013-11-18 06:11:00,26.4,10.8,30.29,ESE,120,0.0,0.0,51,0.00,,SKC,0.00,VWS V14.01,2013-11-18 14:11:00,
2013-11-18 06:16:00,26.2,11.0,30.29,ESE,112,0.0,0.0,52,0.00,,SKC,0.00,VWS V14.01,2013-11-18 14:16:00,
2013-11-18 06:21:00,26.2,11.0,30.29,ESE,109,0.0,0.0,52,0.00,,SKC,0.00,VWS V14.01,2013-11-18 14:21:00,
2013-11-18 06:26:00,26.1,10.9,30.32,ESE,109,0.0,0.0,52,0.00,,SKC,0.00,VWS V14.01,2013-11-18 14:26:00,
2013-11-18 06:31:00,26.1,10.9,30.32,ESE,106,0.0,0.0,52,0.00,,SKC,0.00,VWS V14.01,2013-11-18 14:31:00,
2013-11-18 06:36:00,26.4,11.6,30.32,ESE,106,0.0,0.0,53,0.00,,SKC,0.00,VWS V14.01,2013-11-18 14:36:00,
2013-11-18 06:41:00,26.6,11.8,30.32,ESE,106,0.0,0.0,53,0.00,,SKC,0.00,VWS V14.01,2013-11-18 14:41:00,
2013-11-18 06:46:00,26.8,11.5,30.32,ESE,103,0.0,0.0,52,0.00,,SKC,0.00,VWS V14.01,2013-11-18 14:46:00,
2013-11-18 06:51:00,27.0,11.7,30.32,East,90,3.6,4.0,52,0.00,,SKC,0.00,VWS V14.01,2013-11-18 14:51:00,
2013-11-18 06:56:00,27.5,12.2,30.32,East,91,0.0,0.0,52,0.00,,SKC,0.00,VWS V14.01,2013-11-18 14:56:00,
2013-11-18 07:01:00,27.5,11.3,30.32,East,91,0.0,0.0,50,0.00,,SKC,0.00,VWS V14.01,2013-11-18 15:01:00,
2013-11-18 07:06:00,27.3,10.7,30.32,East,91,0.0,0.0,49,0.00,,SKC,0.00,VWS V14.01,2013-11-18 15:06:00,
2013-11-18 07:11:00,26.8,10.2,30.32,East,91,0.0,0.0,49,0.00,,SKC,0.00,VWS V14.01,2013-11-18 15:11:00,
2013-11-18 07:16:00,26.6,10.9,30.32,East,91,0.0,0.0,51,0.00,,SKC,0.00,VWS V14.01,2013-11-18 15:16:00,
2013-11-18 07:21:00,27.0,11.3,30.32,East,91,0.0,0.0,51,0.00,,SKC,0.00,VWS V14.01,2013-11-18 15:21:00,
2013-11-18 07:26:00,27.3,11.6,30.32,East,90,0.0,0.0,51,0.00,,SKC,0.00,VWS V14.01,2013-11-18 15:26:00,
2013-11-18 07:31:00,28.0,11.8,30.32,ESE,117,0.0,0.0,50,0.00,,SKC,0.00,VWS V14.01,2013-11-18 15:31:00,
2013-11-18 07:36:00,28.9,11.2,30.32,SW,227,0.0,0.0,47,0.00,,SKC,0.00,VWS V14.01,2013-11-18 15:36:00,
2013-11-18 07:41:00,30.2,10.9,30.32,SW,225,0.0,0.0,44,0.00,,SKC,0.00,VWS V14.01,2013-11-18 15:41:00,
2013-11-18 07:46:00,31.5,11.0,30.32,SW,225,0.0,0.0,42,0.00,,SKC,0.00,VWS V14.01,2013-11-18 15:46:00,
2013-11-18 07:51:00,32.5,11.5,30.32,ESE,123,0.0,0.0,41,0.00,,SKC,0.00,VWS V14.01,2013-11-18 15:51:00,
2013-11-18 07:56:00,33.4,11.7,30.32,SE,128,3.1,3.1,40,0.00,,SKC,0.00,VWS V14.01,2013-11-18 15:56:00,
2013-11-18 08:01:00,34.5,12.1,30.32,SE,134,3.1,3.1,39,0.00,,SKC,0.00,VWS V14.01,2013-11-18 16:01:00,
2013-11-18 08:06:00,36.0,12.8,30.32,SE,131,0.0,0.0,38,0.00,,SKC,0.00,VWS V14.01,2013-11-18 16:06:00,
2013-11-18 08:11:00,37.8,12.6,30.32,SE,130,0.0,0.0,35,0.00,,SKC,0.00,VWS V14.01,2013-11-18 16:11:00,
2013-11-18 08:16:00,39.2,11.1,30.32,SE,138,0.0,0.0,31,0.00,,SKC,0.00,VWS V14.01,2013-11-18 16:16:00,
2013-11-18 08:21:00,39.9,11.8,30.32,SE,139,0.0,0.0,31,0.00,,SKC,0.00,VWS V14.01,2013-11-18 16:21:00,
2013-11-18 08:26:00,40.1,11.2,30.32,SE,139,0.0,0.0,30,0.00,,SKC,0.00,VWS V14.01,2013-11-18 16:26:00,
2013-11-18 08:31:00,40.3,11.3,30.32,SE,139,0.0,0.0,30,0.00,,SKC,0.00,VWS V14.01,2013-11-18 16:31:00,
2013-11-18 08:36:00,41.0,11.2,30.32,SE,139,0.0,0.0,29,0.00,,SKC,0.00,VWS V14.01,2013-11-18 16:36:00,
2013-11-18 08:41:00,42.8,12.8,30.32,SE,139,0.0,0.0,29,0.00,,SKC,0.00,VWS V14.01,2013-11-18 16:41:00,
2013-11-18 08:46:00,42.8,12.0,30.32,SE,139,0.0,0.0,28,0.00,,SKC,0.00,VWS V14.01,2013-11-18 16:46:00,
2013-11-18 08:51:00,42.6,12.6,30.32,SE,139,0.0,0.0,29,0.00,,SKC,0.00,VWS V14.01,2013-11-18 16:51:00,
2013-11-18 08:56:00,43.3,12.4,30.32,SE,140,0.0,0.0,28,0.00,,SKC,0.00,VWS V14.01,2013-11-18 16:56:00,
2013-11-18 09:01:00,43.9,12.9,30.32,SSW,204,0.0,0.0,28,0.00,,SKC,0.00,VWS V14.01,2013-11-18 17:01:00,
2013-11-18 09:06:00,44.2,13.2,30.32,SSE,157,2.2,2.2,28,0.00,,SKC,0.00,VWS V14.01,2013-11-18 17:06:00,
2013-11-18 09:11:00,45.1,14.0,30.35,SW,234,0.0,0.0,28,0.00,,SKC,0.00,VWS V14.01,2013-11-18 17:11:00,
2013-11-18 09:16:00,45.9,14.6,30.35,WSW,240,0.0,0.0,28,0.00,,SKC,0.00,VWS V14.01,2013-11-18 17:16:00,
2013-11-18 09:21:00,45.9,14.6,30.35,WSW,240,0.0,0.0,28,0.00,,SKC,0.00,VWS V14.01,2013-11-18 17:21:00,
2013-11-18 09:26:00,46.6,14.4,30.35,SE,140,0.0,0.0,27,0.00,,SKC,0.00,VWS V14.01,2013-11-18 17:26:00,
2013-11-18 09:31:00,47.1,14.9,30.35,SSE,152,0.0,0.0,27,0.00,,SKC,0.00,VWS V14.01,2013-11-18 17:31:00,
2013-11-18 09:36:00,47.5,15.2,30.35,SSW,198,0.0,0.0,27,0.00,,SKC,0.00,VWS V14.01,2013-11-18 17:36:00,
2013-11-18 09:41:00,47.7,15.3,30.35,SW,223,0.0,0.0,27,0.00,,SKC,0.00,VWS V14.01,2013-11-18 17:41:00,
2013-11-18 09:46:00,48.0,15.6,30.35,SW,222,0.0,0.0,27,0.00,,SKC,0.00,VWS V14.01,2013-11-18 17:46:00,
2013-11-18 09:51:00,48.6,13.4,30.35,South,178,0.0,0.0,24,0.00,,SKC,0.00,VWS V14.01,2013-11-18 17:51:00,
2013-11-18 09:56:00,48.9,13.7,30.35,West,279,0.0,0.0,24,0.00,,SKC,0.00,VWS V14.01,2013-11-18 17:56:00,
2013-11-18 10:01:00,49.3,15.9,30.35,WNW,298,0.0,0.0,26,0.00,,SKC,0.00,VWS V14.01,2013-11-18 18:01:00,
2013-11-18 10:06:00,49.6,14.3,30.35,West,279,3.6,3.6,24,0.00,,SKC,0.00,VWS V14.01,2013-11-18 18:06:00,
2013-11-18 10:11:00,49.5,14.2,30.35,West,273,0.0,2.2,24,0.00,,SKC,0.00,VWS V14.01,2013-11-18 18:11:00,
2013-11-18 10:15:00,49.5,14.2,30.35,NW,322,0.0,0.0,24,0.00,,SKC,0.00,VWS V14.01,2013-11-18 18:15:00,
2013-11-18 10:20:00,49.5,14.2,30.35,SW,225,0.0,0.0,24,0.00,,SKC,0.00,VWS V14.01,2013-11-18 18:20:00,
2013-11-18 10:25:00,49.8,14.5,30.35,WNW,285,0.0,0.0,24,0.00,,SKC,0.00,VWS V14.01,2013-11-18 18:25:00,
2013-11-18 10:30:00,50.4,14.9,30.35,WNW,284,3.1,3.6,24,0.00,,SKC,0.00,VWS V14.01,2013-11-18 18:30:00,
2013-11-18 10:35:00,50.5,15.1,30.35,WNW,289,0.0,0.0,24,0.00,,SKC,0.00,VWS V14.01,2013-11-18 18:35:00,
2013-11-18 10:40:00,50.9,15.4,30.35,NW,317,2.7,2.7,24,0.00,,SKC,0.00,VWS V14.01,2013-11-18 18:40:00,
2013-11-18 10:45:00,51.6,16.0,30.35,NNW,341,4.9,4.9,24,0.00,,SKC,0.00,VWS V14.01,2013-11-18 18:45:00,
2013-11-18 10:50:00,52.0,15.4,30.35,NNW,328,0.0,0.0,23,0.00,,SKC,0.00,VWS V14.01,2013-11-18 18:50:00,
2013-11-18 10:55:00,52.2,15.5,30.35,NNW,339,0.0,0.0,23,0.00,,SKC,0.00,VWS V14.01,2013-11-18 18:55:00,
2013-11-18 11:00:00,52.3,15.7,30.35,NNW,343,0.0,0.0,23,0.00,,SKC,0.00,VWS V14.01,2013-11-18 19:00:00,
2013-11-18 11:05:00,53.1,16.3,30.35,WNW,291,0.0,4.9,23,0.00,,SKC,0.00,VWS V14.01,2013-11-18 19:05:00,
2013-11-18 11:10:00,54.0,13.8,30.35,WSW,257,4.0,5.4,20,0.00,,SKC,0.00,VWS V14.01,2013-11-18 19:10:00,
2013-11-18 11:15:00,54.1,14.0,30.35,NNW,328,3.1,4.0,20,0.00,,SKC,0.00,VWS V14.01,2013-11-18 19:15:00,
2013-11-18 11:20:00,54.1,17.2,30.35,NNE,29,0.0,0.0,23,0.00,,SKC,0.00,VWS V14.01,2013-11-18 19:20:00,
2013-11-18 11:25:00,54.3,14.1,30.35,WNW,295,4.0,4.9,20,0.00,,SKC,0.00,VWS V14.01,2013-11-18 19:25:00,
2013-11-18 11:30:00,54.1,14.0,30.35,WNW,296,0.0,2.7,20,0.00,,SKC,0.00,VWS V14.01,2013-11-18 19:30:00,
2013-11-18 11:35:00,54.0,13.8,30.35,SW,233,0.0,0.0,20,0.00,,SKC,0.00,VWS V14.01,2013-11-18 19:35:00,
2013-11-18 11:40:00,54.0,13.8,30.35,NE,56,0.0,0.0,20,0.00,,SKC,0.00,VWS V14.01,2013-11-18 19:40:00,
2013-11-18 11:45:00,54.0,13.8,30.35,South,186,0.0,0.0,20,0.00,,SKC,0.00,VWS V14.01,2013-11-18 19:45:00,
2013-11-18 11:50:00,54.1,14.0,30.35,SE,138,0.0,0.0,20,0.00,,SKC,0.00,VWS V14.01,2013-11-18 19:50:00,
2013-11-18 11:55:00,54.3,14.1,30.32,NNE,31,0.0,0.0,20,0.00,,SKC,0.00,VWS V14.01,2013-11-18 19:55:00,
2013-11-18 12:00:00,54.5,14.3,30.32,NNE,27,4.5,4.5,20,0.00,,SKC,0.00,VWS V14.01,2013-11-18 20:00:00,
2013-11-18 12:05:00,54.9,14.6,30.32,NNE,30,0.0,0.0,20,0.00,,SKC,0.00,VWS V14.01,2013-11-18 20:05:00,
2013-11-18 12:10:00,55.0,14.7,30.32,NE,45,2.2,2.2,20,0.00,,SKC,0.00,VWS V14.01,2013-11-18 20:10:00,
2013-11-18 12:15:00,55.0,14.7,30.32,NNE,23,3.6,3.6,20,0.00,,SKC,0.00,VWS V14.01,2013-11-18 20:15:00,
2013-11-18 12:20:00,55.2,14.9,30.32,North,357,0.0,0.0,20,0.00,,SKC,0.00,VWS V14.01,2013-11-18 20:20:00,
2013-11-18 12:25:00,55.6,15.2,30.32,WNW,282,0.0,0.0,20,0.00,,SKC,0.00,VWS V14.01,2013-11-18 20:25:00,
2013-11-18 12:30:00,55.9,15.5,30.32,WNW,287,3.6,4.0,20,0.00,,SKC,0.00,VWS V14.01,2013-11-18 20:30:00,
2013-11-18 12:35:00,56.1,15.6,30.32,West,262,0.0,0.0,20,0.00,,SKC,0.00,VWS V14.01,2013-11-18 20:35:00,
2013-11-18 12:40:00,56.3,15.8,30.32,West,262,0.0,0.0,20,0.00,,SKC,0.00,VWS V14.01,2013-11-18 20:40:00,
2013-11-18 12:45:00,56.5,15.9,30.32,WNW,302,2.7,4.9,20,0.00,,SKC,0.00,VWS V14.01,2013-11-18 20:45:00,
2013-11-18 12:50:00,56.3,15.8,30.32,NW,326,3.6,4.9,20,0.00,,SKC,0.00,VWS V14.01,2013-11-18 20:50:00,
2013-11-18 12:55:00,56.5,15.9,30.32,NW,316,0.0,0.0,20,0.00,,SKC,0.00,VWS V14.01,2013-11-18 20:55:00,
2013-11-18 13:00:00,56.8,16.2,30.32,NNW,332,0.0,0.0,20,0.00,,SKC,0.00,VWS V14.01,2013-11-18 21:00:00,
2013-11-18 13:05:00,57.2,15.3,30.32,West,266,0.0,0.0,19,0.00,,SKC,0.00,VWS V14.01,2013-11-18 21:05:00,
2013-11-18 13:10:00,58.8,16.7,30.32,NW,325,2.7,3.1,19,0.00,,SKC,0.00,VWS V14.01,2013-11-18 21:10:00,
2013-11-18 13:15:00,60.4,18.0,30.32,NW,310,3.6,3.6,19,0.00,,SKC,0.00,VWS V14.01,2013-11-18 21:15:00,
2013-11-18 13:20:00,60.8,18.3,30.32,WNW,293,6.3,6.3,19,0.00,,SKC,0.00,VWS V14.01,2013-11-18 21:20:00,
2013-11-18 13:25:00,59.9,17.6,30.32,WNW,298,7.6,7.6,19,0.00,,SKC,0.00,VWS V14.01,2013-11-18 21:25:00,
2013-11-18 13:30:00,59.4,17.1,30.32,NW,325,3.6,5.4,19,0.00,,SKC,0.00,VWS V14.01,2013-11-18 21:30:00,
2013-11-18 13:35:00,58.8,16.7,30.32,WNW,292,5.8,5.8,19,0.00,,SKC,0.00,VWS V14.01,2013-11-18 21:35:00,
2013-11-18 13:40:00,57.9,15.9,30.29,West,279,6.3,6.3,19,0.00,,SKC,0.00,VWS V14.01,2013-11-18 21:40:00,
2013-11-18 13:45:00,57.6,15.6,30.29,NW,309,4.0,4.0,19,0.00,,SKC,0.00,VWS V14.01,2013-11-18 21:45:00,
2013-11-18 13:50:00,57.4,15.5,30.29,WNW,283,2.2,2.7,19,0.00,,SKC,0.00,VWS V14.01,2013-11-18 21:50:00,
2013-11-18 13:55:00,57.4,15.5,30.29,West,271,3.1,3.1,19,0.00,,SKC,0.00,VWS V14.01,2013-11-18 21:55:00,
2013-11-18 14:00:00,57.4,15.5,30.29,East,84,0.0,0.0,19,0.00,,SKC,0.00,VWS V14.01,2013-11-18 22:00:00,
2013-11-18 14:05:00,57.2,15.3,30.29,NW,307,0.0,0.0,19,0.00,,SKC,0.00,VWS V14.01,2013-11-18 22:05:00,
2013-11-18 14:10:00,57.2,15.3,30.29,NNE,20,0.0,0.0,19,0.00,,SKC,0.00,VWS V14.01,2013-11-18 22:10:00,
2013-11-18 14:15:00,57.2,15.3,30.29,East,82,2.7,3.1,19,0.00,,SKC,0.00,VWS V14.01,2013-11-18 22:15:00,
2013-11-18 14:20:00,57.4,15.5,30.29,SE,137,0.0,0.0,19,0.00,,SKC,0.00,VWS V14.01,2013-11-18 22:20:00,
2013-11-18 14:25:00,57.7,15.8,30.29,SSW,195,0.0,0.0,19,0.00,,SKC,0.00,VWS V14.01,2013-11-18 22:25:00,
2013-11-18 14:30:00,58.1,16.1,30.29,SSW,200,6.3,11.0,19,0.00,,SKC,0.00,VWS V14.01,2013-11-18 22:30:00,
2013-11-18 14:35:00,58.5,16.4,30.29,SW,224,10.1,10.1,19,0.00,,SKC,0.00,VWS V14.01,2013-11-18 22:35:00,
2013-11-18 14:40:00,58.5,16.4,30.29,SSW,211,9.6,10.5,19,0.00,,SKC,0.00,VWS V14.01,2013-11-18 22:40:00,
2013-11-18 14:45:00,58.3,16.2,30.29,South,182,8.3,10.1,19,0.00,,SKC,0.00,VWS V14.01,2013-11-18 22:45:00,
2013-11-18 14:50:00,58.1,16.1,30.29,SSW,211,12.8,12.8,19,0.00,,SKC,0.00,VWS V14.01,2013-11-18 22:50:00,
2013-11-18 14:55:00,58.1,16.1,30.29,SSE,164,15.0,15.0,19,0.00,,SKC,0.00,VWS V14.01,2013-11-18 22:55:00,
2013-11-18 15:00:00,58.1,16.1,30.29,South,183,10.1,11.9,19,0.00,,SKC,0.00,VWS V14.01,2013-11-18 23:00:00,
2013-11-18 15:05:00,58.1,16.1,30.29,SSE,154,8.7,8.7,19,0.00,,SKC,0.00,VWS V14.01,2013-11-18 23:05:00,
2013-11-18 15:10:00,58.5,16.4,30.29,South,178,14.1,14.1,19,0.00,,SKC,0.00,VWS V14.01,2013-11-18 23:10:00,
2013-11-18 15:15:00,59.5,17.3,30.29,SSE,149,10.1,10.1,19,0.00,,SKC,0.00,VWS V14.01,2013-11-18 23:15:00,
2013-11-18 15:20:00,60.1,17.7,30.29,SSE,166,8.7,8.7,19,0.00,,SKC,0.00,VWS V14.01,2013-11-18 23:20:00,
2013-11-18 15:25:00,60.1,17.7,30.29,SSW,204,8.7,12.8,19,0.00,,SKC,0.00,VWS V14.01,2013-11-18 23:25:00,
2013-11-18 15:30:00,59.7,17.4,30.29,SSE,148,5.8,5.8,19,0.00,,SKC,0.00,VWS V14.01,2013-11-18 23:30:00,
2013-11-18 15:35:00,59.7,17.4,30.29,SSE,158,11.0,12.8,19,0.00,,SKC,0.00,VWS V14.01,2013-11-18 23:35:00,
2013-11-18 15:40:00,59.2,17.0,30.29,SSW,197,11.0,11.0,19,0.00,,SKC,0.00,VWS V14.01,2013-11-18 23:40:00,
2013-11-18 15:45:00,58.5,16.4,30.29,SSW,208,6.3,10.5,19,0.00,,SKC,0.00,VWS V14.01,2013-11-18 23:45:00,
2013-11-18 15:50:00,58.5,16.4,30.29,South,188,6.3,6.3,19,0.00,,SKC,0.00,VWS V14.01,2013-11-18 23:50:00,
2013-11-18 15:55:00,57.9,15.9,30.29,South,179,10.1,13.2,19,0.00,,SKC,0.00,VWS V14.01,2013-11-18 23:55:00,
2013-11-18 16:00:00,57.2,15.3,30.29,SSW,212,14.1,14.1,19,0.00,,SKC,0.00,VWS V14.01,2013-11-19 00:00:00,
2013-11-18 16:05:00,57.0,16.4,30.29,SSE,168,8.1,11.4,20,0.00,,SKC,0.00,VWS V14.01,2013-11-19 00:05:00,
2013-11-18 16:10:00,56.7,16.1,30.29,SSW,205,8.1,10.5,20,0.00,,SKC,0.00,VWS V14.01,2013-11-19 00:10:00,
2013-11-18 16:15:00,56.5,15.9,30.29,SE,142,4.0,6.3,20,0.00,,SKC,0.00,VWS V14.01,2013-11-19 00:15:00,
2013-11-18 16:20:00,56.3,15.8,30.29,South,191,11.0,11.0,20,0.00,,SKC,0.00,VWS V14.01,2013-11-19 00:20:00,
2013-11-18 16:25:00,56.1,15.6,30.29,SSW,204,8.1,8.7,20,0.00,,SKC,0.00,VWS V14.01,2013-11-19 00:25:00,
2013-11-18 16:30:00,55.8,15.3,30.29,South,182,7.6,7.6,20,0.00,,SKC,0.00,VWS V14.01,2013-11-19 00:30:00,
2013-11-18 16:35:00,55.6,15.2,30.29,SE,143,5.4,6.3,20,0.00,,SKC,0.00,VWS V14.01,2013-11-19 00:35:00,
2013-11-18 16:40:00,55.2,14.9,30.29,South,183,8.3,8.3,20,0.00,,SKC,0.00,VWS V14.01,2013-11-19 00:40:00,
2013-11-18 16:45:00,55.0,14.7,30.29,SSE,154,6.3,10.1,20,0.00,,SKC,0.00,VWS V14.01,2013-11-19 00:45:00,
2013-11-18 16:50:00,54.9,14.6,30.29,South,179,4.0,5.8,20,0.00,,SKC,0.00,VWS V14.01,2013-11-19 00:50:00,
2013-11-18 16:55:00,54.7,14.4,30.29,South,187,11.0,17.0,20,0.00,,SKC,0.00,VWS V14.01,2013-11-19 00:55:00,
2013-11-18 17:00:00,55.0,14.7,30.29,SSW,209,6.3,15.0,20,0.00,,SKC,0.00,VWS V14.01,2013-11-19 01:00:00,
2013-11-18 17:05:00,54.9,14.6,30.29,SSW,200,12.3,13.2,20,0.00,,SKC,0.00,VWS V14.01,2013-11-19 01:05:00,
2013-11-18 17:10:00,54.7,14.4,30.29,SSE,159,8.7,10.5,20,0.00,,SKC,0.00,VWS V14.01,2013-11-19 01:10:00,
2013-11-18 17:15:00,54.7,14.4,30.29,SSE,155,5.8,7.2,20,0.00,,SKC,0.00,VWS V14.01,2013-11-19 01:15:00,
2013-11-18 17:20:00,54.3,14.1,30.29,South,173,7.6,10.1,20,0.00,,SKC,0.00,VWS V14.01,2013-11-19 01:20:00,
2013-11-18 17:25:00,54.1,14.0,30.29,South,172,16.8,16.8,20,0.00,,SKC,0.00,VWS V14.01,2013-11-19 01:25:00,
2013-11-18 17:30:00,54.0,13.8,30.29,SE,144,6.3,11.9,20,0.00,,SKC,0.00,VWS V14.01,2013-11-19 01:30:00,
2013-11-18 17:35:00,53.6,13.5,30.29,SE,135,8.7,8.7,20,0.00,,SKC,0.00,VWS V14.01,2013-11-19 01:35:00,
2013-11-18 17:40:00,53.6,13.5,30.29,SSE,155,8.7,10.5,20,0.00,,SKC,0.00,VWS V14.01,2013-11-19 01:40:00,
2013-11-18 17:44:00,53.4,14.5,30.29,SSE,167,8.1,8.1,21,0.00,,SKC,0.00,VWS V14.01,2013-11-19 01:44:00,
2013-11-18 17:49:00,53.2,14.3,30.29,South,190,5.8,8.1,21,0.00,,SKC,0.00,VWS V14.01,2013-11-19 01:49:00,
2013-11-18 17:54:00,52.9,14.0,30.29,SSE,152,5.8,5.8,21,0.00,,SKC,0.00,VWS V14.01,2013-11-19 01:54:00,
2013-11-18 17:59:00,52.7,13.9,30.29,ESE,116,6.3,8.3,21,0.00,,SKC,0.00,VWS V14.01,2013-11-19 01:59:00,
2013-11-18 18:04:00,52.7,13.9,30.29,South,169,5.4,5.4,21,0.00,,SKC,0.00,VWS V14.01,2013-11-19 02:04:00,
2013-11-18 18:09:00,52.7,13.9,30.29,SW,216,2.7,6.3,21,0.00,,SKC,0.00,VWS V14.01,2013-11-19 02:09:00,
2013-11-18 18:14:00,52.9,14.0,30.29,SW,223,4.9,4.9,21,0.00,,SKC,0.00,VWS V14.01,2013-11-19 02:14:00,
2013-11-18 18:19:00,52.9,14.0,30.29,South,169,4.5,9.6,21,0.00,,SKC,0.00,VWS V14.01,2013-11-19 02:19:00,
2013-11-18 18:24:00,52.9,14.0,30.29,South,187,7.6,7.6,21,0.00,,SKC,0.00,VWS V14.01,2013-11-19 02:24:00,
2013-11-18 18:29:00,53.2,14.3,30.29,SE,137,6.3,11.0,21,0.00,,SKC,0.00,VWS V14.01,2013-11-19 02:29:00,
2013-11-18 18:34:00,53.6,13.5,30.29,SW,222,3.6,5.4,20,0.00,,SKC,0.00,VWS V14.01,2013-11-19 02:34:00,
2013-11-18 18:39:00,52.9,14.0,30.29,SSE,152,3.6,3.6,21,0.00,,SKC,0.00,VWS V14.01,2013-11-19 02:39:00,
2013-11-18 18:44:00,53.1,14.2,30.29,SSE,151,4.0,4.0,21,0.00,,SKC,0.00,VWS V14.01,2013-11-19 02:44:00,
2013-11-18 18:49:00,53.1,14.2,30.29,South,181,15.0,15.0,21,0.00,,SKC,0.00,VWS V14.01,2013-11-19 02:49:00,
2013-11-18 18:54:00,53.1,14.2,30.29,SSE,147,6.3,6.3,21,0.00,,SKC,0.00,VWS V14.01,2013-11-19 02:54:00,
2013-11-18 18:59:00,52.9,14.0,30.26,South,178,8.3,8.3,21,0.00,,SKC,0.00,VWS V14.01,2013-11-19 02:59:00,
2013-11-18 19:04:00,52.9,14.0,30.26,SSW,206,5.4,5.4,21,0.00,,SKC,0.00,VWS V14.01,2013-11-19 03:04:00,
2013-11-18 19:09:00,52.3,13.6,30.26,SW,216,5.8,8.7,21,0.00,,SKC,0.00,VWS V14.01,2013-11-19 03:09:00,
2013-11-18 19:14:00,51.4,12.8,30.29,SSW,203,5.4,5.4,21,0.00,,SKC,0.00,VWS V14.01,2013-11-19 03:14:00,
2013-11-18 19:19:00,50.9,15.4,30.29,SSE,150,3.6,4.0,24,0.00,,SKC,0.00,VWS V14.01,2013-11-19 03:19:00,
2013-11-18 19:24:00,50.2,14.8,30.29,WSW,245,0.0,0.0,24,0.00,,SKC,0.00,VWS V14.01,2013-11-19 03:24:00,
2013-11-18 19:29:00,49.6,14.3,30.29,SW,231,0.0,0.0,24,0.00,,SKC,0.00,VWS V14.01,2013-11-19 03:29:00,
2013-11-18 19:34:00,49.3,14.0,30.29,WSW,250,3.1,3.6,24,0.00,,SKC,0.00,VWS V14.01,2013-11-19 03:34:00,
2013-11-18 19:39:00,49.3,14.0,30.29,SW,230,0.0,0.0,24,0.00,,SKC,0.00,VWS V14.01,2013-11-19 03:39:00,
2013-11-18 19:44:00,48.9,15.6,30.29,SSE,167,4.0,4.0,26,0.00,,SKC,0.00,VWS V14.01,2013-11-19 03:44:00,
2013-11-18 19:49:00,48.7,15.4,30.29,SW,222,2.7,2.7,26,0.00,,SKC,0.00,VWS V14.01,2013-11-19 03:49:00,
2013-11-18 19:54:00,48.6,15.2,30.29,South,189,5.8,5.8,26,0.00,,SKC,0.00,VWS V14.01,2013-11-19 03:54:00,
2013-11-18 19:59:00,48.7,15.4,30.29,SSE,166,4.0,4.0,26,0.00,,SKC,0.00,VWS V14.01,2013-11-19 03:59:00,
2013-11-18 20:04:00,49.1,15.7,30.29,SSE,152,3.1,3.1,26,0.00,,SKC,0.00,VWS V14.01,2013-11-19 04:04:00,
2013-11-18 20:07:00,49.5,14.2,30.29,SSE,161,6.3,6.3,24,0.00,,SKC,0.00,VWS V14.01,2013-11-19 04:07:00,
2013-11-18 20:12:00,50.0,14.6,30.29,SSE,149,4.0,4.0,24,0.00,,SKC,0.00,VWS V14.01,2013-11-19 04:12:00,
2013-11-18 20:17:00,50.2,14.8,30.29,SSE,149,4.9,4.9,24,0.00,,SKC,0.00,VWS V14.01,2013-11-19 04:17:00,
2013-11-18 20:22:00,50.2,14.8,30.29,SSE,168,3.6,5.8,24,0.00,,SKC,0.00,VWS V14.01,2013-11-19 04:22:00,
2013-11-18 20:27:00,50.0,14.6,30.29,SSE,153,4.0,4.0,24,0.00,,SKC,0.00,VWS V14.01,2013-11-19 04:27:00,
2013-11-18 20:32:00,50.4,14.9,30.29,SSE,154,6.3,6.3,24,0.00,,SKC,0.00,VWS V14.01,2013-11-19 04:32:00,
2013-11-18 20:37:00,50.7,15.3,30.29,SE,146,5.4,8.1,24,0.00,,SKC,0.00,VWS V14.01,2013-11-19 04:37:00,
2013-11-18 20:42:00,50.7,15.3,30.29,SSW,205,5.4,6.7,24,0.00,,SKC,0.00,VWS V14.01,2013-11-19 04:42:00,
2013-11-18 20:47:00,49.8,14.5,30.29,SSW,208,4.9,5.8,24,0.00,,SKC,0.00,VWS V14.01,2013-11-19 04:47:00,
2013-11-18 20:52:00,48.9,13.7,30.29,West,275,5.8,5.8,24,0.00,,SKC,0.00,VWS V14.01,2013-11-19 04:52:00,
2013-11-18 20:57:00,48.4,15.1,30.29,WNW,287,3.1,4.0,26,0.00,,SKC,0.00,VWS V14.01,2013-11-19 04:57:00,
2013-11-18 21:01:00,48.0,15.6,30.29,NW,304,3.6,4.0,27,0.00,,SKC,0.00,VWS V14.01,2013-11-19 05:01:00,
2013-11-18 21:02:00,47.7,15.3,30.29,WNW,284,0.0,0.0,27,0.00,,SKC,0.00,VWS V14.01,2013-11-19 05:02:00,
2013-11-18 21:07:00,47.1,14.9,30.29,WSW,252,0.0,0.0,27,0.00,,SKC,0.00,VWS V14.01,2013-11-19 05:07:00,
2013-11-18 21:12:00,46.4,14.2,30.29,SSE,163,3.6,3.6,27,0.00,,SKC,0.00,VWS V14.01,2013-11-19 05:12:00,
2013-11-18 21:17:00,45.7,14.5,30.29,SSE,154,2.7,3.6,28,0.00,,SKC,0.00,VWS V14.01,2013-11-19 05:17:00,
2013-11-18 21:22:00,45.5,14.3,30.29,SSE,155,0.0,0.0,28,0.00,,SKC,0.00,VWS V14.01,2013-11-19 05:22:00,
2013-11-18 21:27:00,45.7,15.3,30.32,SSE,153,3.1,5.4,29,0.00,,SKC,0.00,VWS V14.01,2013-11-19 05:27:00,
2013-11-18 21:32:00,46.0,16.4,30.32,SSE,163,0.0,0.0,30,0.00,,SKC,0.00,VWS V14.01,2013-11-19 05:32:00,
2013-11-18 21:37:00,46.0,16.4,30.32,SSE,162,0.0,0.0,30,0.00,,SKC,0.00,VWS V14.01,2013-11-19 05:37:00,
2013-11-18 21:42:00,46.2,16.5,30.29,SSE,150,0.0,0.0,30,0.00,,SKC,0.00,VWS V14.01,2013-11-19 05:42:00,
2013-11-18 21:47:00,46.0,16.4,30.29,SSE,150,0.0,0.0,30,0.00,,SKC,0.00,VWS V14.01,2013-11-19 05:47:00,
2013-11-18 21:52:00,46.0,16.4,30.29,SE,126,0.0,0.0,30,0.00,,SKC,0.00,VWS V14.01,2013-11-19 05:52:00,
2013-11-18 21:57:00,45.7,16.0,30.29,SE,126,0.0,0.0,30,0.00,,SKC,0.00,VWS V14.01,2013-11-19 05:57:00,
2013-11-18 22:02:00,45.9,16.2,30.29,SE,126,0.0,0.0,30,0.00,,SKC,0.00,VWS V14.01,2013-11-19 06:02:00,
2013-11-18 22:07:00,46.2,16.5,30.29,ENE,76,0.0,0.0,30,0.00,,SKC,0.00,VWS V14.01,2013-11-19 06:07:00,
2013-11-18 22:12:00,46.6,16.0,30.29,SSW,208,0.0,0.0,29,0.00,,SKC,0.00,VWS V14.01,2013-11-19 06:12:00,
2013-11-18 22:17:00,47.3,16.7,30.29,SSW,201,2.7,3.6,29,0.00,,SKC,0.00,VWS V14.01,2013-11-19 06:17:00,
2013-11-18 22:22:00,47.5,16.8,30.29,SSW,194,4.9,4.9,29,0.00,,SKC,0.00,VWS V14.01,2013-11-19 06:22:00,
2013-11-18 22:27:00,47.8,17.1,30.29,SW,221,5.8,5.8,29,0.00,,SKC,0.00,VWS V14.01,2013-11-19 06:27:00,
2013-11-18 22:32:00,48.2,16.6,30.29,West,263,0.0,0.0,28,0.00,,SKC,0.00,VWS V14.01,2013-11-19 06:32:00,
2013-11-18 22:37:00,48.2,16.6,30.29,WSW,240,6.3,6.3,28,0.00,,SKC,0.00,VWS V14.01,2013-11-19 06:37:00,
2013-11-18 22:42:00,48.7,17.1,30.29,SSW,192,12.8,12.8,28,0.00,,SKC,0.00,VWS V14.01,2013-11-19 06:42:00,
2013-11-18 22:47:00,49.1,16.6,30.29,South,179,5.4,6.3,27,0.00,,SKC,0.00,VWS V14.01,2013-11-19 06:47:00,
2013-11-18 22:52:00,49.1,16.6,30.29,SSW,198,12.8,12.8,27,0.00,,SKC,0.00,VWS V14.01,2013-11-19 06:52:00,
2013-11-18 22:57:00,49.1,16.6,30.26,SSW,196,12.3,15.4,27,0.00,,SKC,0.00,VWS V14.01,2013-11-19 06:57:00,
2013-11-18 23:02:00,49.6,17.0,30.26,South,173,10.1,10.1,27,0.00,,SKC,0.00,VWS V14.01,2013-11-19 07:02:00,
2013-11-18 23:07:00,49.8,17.2,30.26,SSE,157,12.3,12.3,27,0.00,,SKC,0.00,VWS V14.01,2013-11-19 07:07:00,
2013-11-18 23:12:00,49.8,17.2,30.26,South,185,18.8,18.8,27,0.00,,SKC,0.00,VWS V14.01,2013-11-19 07:12:00,
2013-11-18 23:17:00,49.8,17.2,30.26,SSE,166,13.2,13.2,27,0.00,,SKC,0.00,VWS V14.01,2013-11-19 07:17:00,
2013-11-18 23:22:00,49.8,17.2,30.26,South,186,15.0,15.0,27,0.00,,SKC,0.00,VWS V14.01,2013-11-19 07:22:00,
2013-11-18 23:27:00,50.2,16.6,30.26,SSW,192,11.0,12.8,26,0.00,,SKC,0.00,VWS V14.01,2013-11-19 07:27:00,
2013-11-18 23:32:00,50.0,17.4,30.26,South,176,13.2,13.2,27,0.00,,SKC,0.00,VWS V14.01,2013-11-19 07:32:00,
2013-11-18 23:37:00,50.2,16.6,30.26,SE,130,10.5,14.5,26,0.00,,SKC,0.00,VWS V14.01,2013-11-19 07:37:00,
2013-11-18 23:42:00,50.2,16.6,30.26,SSE,151,13.2,13.2,26,0.00,,SKC,0.00,VWS V14.01,2013-11-19 07:42:00,
2013-11-18 23:47:00,50.2,16.6,30.26,South,182,16.8,18.3,26,0.00,,SKC,0.00,VWS V14.01,2013-11-19 07:47:00,
2013-11-18 23:52:00,50.2,16.6,30.26,SSE,154,15.4,20.6,26,0.00,,SKC,0.00,VWS V14.01,2013-11-19 07:52:00,
2013-11-18 23:57:00,50.0,16.5,30.26,SSE,150,20.6,20.6,26,0.00,,SKC,0.00,VWS V14.01,2013-11-19 07:57:00,